Aberdeen, SD

8:11 PM CDT on September 28, 2016 (GMT -0500)
Aberdeen Regional

Weather History for KABR - June, 2013

Change the Weather History Date:

Friday, June 28, 2013

  Actual Average Record
Temperature  
Mean Temperature 72 °F 69 °F  
Max Temperature 84 °F 81 °F 112 °F (1931)
Min Temperature 59 °F 57 °F 40 °F (1951)
Degree Days  
Heating Degree Days 0 1  
Month to date heating degree days 81 74  
Since 1 June heating degree days 81 74  
Since 1 July heating degree days 9073 8532  
Cooling Degree Days 7 5  
Month to date cooling degree days 88 82  
Year to date cooling degree days 109 105  
Since 1 June cooling degree days 88 82  
Growing Degree Days 22 (Base 50)    
Moisture  
Dew Point 53 °F    
Average Humidity 57    
Maximum Humidity 80    
Minimum Humidity 33    
Precipitation  
Precipitation 0.00 in 0.13 in 1.80 in (1915)
Month to date precipitation 2.19 3.47  
Year to date precipitation 10.71 10.61  
Sea Level Pressure  
Sea Level Pressure 29.98 in    
Wind  
Wind Speed 16 mph (NW)    
Max Wind Speed 30 mph    
Max Gust Speed 38 mph    
Visibility 10 miles    
Events      
T = Trace of Precipitation, MM = Missing Value Source: NWS Daily Summary

Daily Weather History Graph

Daily Weather History Graph

Search for Another Location

Airport or City:

Trip Planner

Search our weather history database for the weather conditions in past years. The results will help you decide how hot, cold, wet, or windy it might be!

Date:

Astronomy

Jun. 28, 2013 Rise Set
Actual Time 5:47 AM CDT 9:26 PM CDT
Civil Twilight 5:09 AM CDT 10:03 PM CDT
Nautical Twilight 4:19 AM CDT 10:54 PM CDT
Astronomical Twilight 3:11 AM CDT 12:01 AM CDT
Moon 12:06 AM CDT (6/28) 12:16 PM CDT (6/28)
Length of Visible Light 16h 54m
Length of Day
15h 38m
Waning Gibbous, 66% of the Moon is Illuminated
Jun 28
Waning Gibbous
Jun 29
Last Quarter
Jul 8
New
Jul 15
First Quarter
Jul 22
Full

Hourly Weather History & Observations

Time (CDT) Temp. Dew Point Humidity Pressure Visibility Wind Dir Wind Speed Gust Speed Precip Events Conditions
12:53 AM 66.0 °F 53.1 °F 63% 29.95 in 10.0 mi NW 10.4 mph - N/A   Clear
1:53 AM 64.9 °F 54.0 °F 68% 29.96 in 10.0 mi NW 8.1 mph - N/A   Clear
2:53 AM 63.0 °F 54.0 °F 72% 29.97 in 10.0 mi WNW 9.2 mph - N/A   Clear
3:53 AM 61.0 °F 54.0 °F 78% 29.98 in 10.0 mi WNW 8.1 mph - N/A   Clear
4:53 AM 61.0 °F 54.0 °F 78% 29.99 in 10.0 mi WNW 8.1 mph - N/A   Clear
5:53 AM 59.0 °F 53.1 °F 81% 29.99 in 10.0 mi NW 8.1 mph - N/A   Clear
6:53 AM 63.0 °F 53.1 °F 70% 30.00 in 10.0 mi NW 11.5 mph - N/A   Clear
7:53 AM 66.9 °F 55.0 °F 66% 30.01 in 10.0 mi NW 11.5 mph - N/A   Clear
8:53 AM 71.1 °F 57.0 °F 61% 30.01 in 10.0 mi NW 15.0 mph - N/A   Clear
9:53 AM 75.0 °F 55.0 °F 50% 30.00 in 10.0 mi NNW 17.3 mph 26.5 mph N/A   Clear
10:53 AM 78.1 °F 54.0 °F 43% 30.00 in 10.0 mi NNW 20.7 mph 29.9 mph N/A   Clear
11:53 AM 79.0 °F 51.1 °F 38% 29.99 in 10.0 mi NW 25.3 mph 33.4 mph N/A   Clear
12:53 PM 82.0 °F 52.0 °F 35% 29.99 in 10.0 mi NNW 20.7 mph 35.7 mph N/A   Clear
1:53 PM 82.0 °F 52.0 °F 35% 29.98 in 10.0 mi NNW 25.3 mph 35.7 mph N/A   Clear
2:53 PM 80.1 °F 52.0 °F 38% 29.98 in 10.0 mi NNW 25.3 mph 28.8 mph N/A   Scattered Clouds
3:53 PM 82.9 °F 51.1 °F 33% 29.98 in 10.0 mi NW 23.0 mph 32.2 mph N/A   Partly Cloudy
4:53 PM 82.9 °F 51.1 °F 33% 29.97 in 10.0 mi North 21.9 mph 33.4 mph N/A   Partly Cloudy
5:53 PM 82.0 °F 50.0 °F 33% 29.96 in 10.0 mi NW 24.2 mph 34.5 mph N/A   Scattered Clouds
6:53 PM 80.1 °F 50.0 °F 35% 29.95 in 10.0 mi NW 23.0 mph 32.2 mph N/A   Clear
7:53 PM 79.0 °F 51.1 °F 38% 29.95 in 10.0 mi NNW 17.3 mph 25.3 mph N/A   Clear
8:53 PM 75.0 °F 52.0 °F 44% 29.96 in 10.0 mi NW 12.7 mph 23.0 mph N/A   Clear
9:53 PM 70.0 °F 53.1 °F 55% 29.96 in 10.0 mi NW 10.4 mph - N/A   Clear
10:53 PM 68.0 °F 52.0 °F 56% 29.97 in 10.0 mi NNW 10.4 mph - N/A   Clear
11:53 PM 64.9 °F 52.0 °F 63% 29.96 in 10.0 mi NNW 10.4 mph - N/A   Clear